QPF
0.01 0.01 0.01 0.01 0.00 0.00 0.00 0.00 0.01 0.01 0.01 0.01 0.01 0.01 0.02 0.02 0.03 0.02 0.01 0.02 0.02 0.02 0.02 0.02 0.01 0.01 0.01 0.01 0.01 0.01 0.01 0.01 0.01 0.02 0.03 0.04 0.05 0.06
0.00 0.00 0.00 0.00 0.00 0.00 0.00 0.00 0.01 0.01 0.01 0.01 0.01 0.01 0.01 0.02 0.02 0.01 0.01 0.01 0.01 0.01 0.01 0.01 0.01 0.00 0.01 0.01 0.00 0.01 0.01 0.01 0.01 0.02 0.02 0.03 0.04 0.05
0.00 0.00 0.00 0.00 0.00 0.00 0.00 0.00 0.00 0.00 0.01 0.01 0.01 0.01 0.01 0.01 0.01 0.01 0.00 0.00 0.00 0.00 0.00 0.00 0.00 0.00 0.00 0.00 0.00 0.00 0.00 0.01 0.01 0.01 0.02 0.02 0.03 0.03
0.00 0.00 0.00 0.00 0.00 0.00 0.00 0.00 0.00 0.00 0.00 0.00 0.01 0.01 0.01 0.01 0.00 0.00 0.00 0.00 0.00 0.00 0.00 0.00 0.00 0.00 0.00 0.00 0.00 0.00 0.00 0.00 0.00 0.01 0.01 0.02 0.02 0.02
0.00 0.00 0.00 0.00 0.00 0.00 0.00 0.00 0.00 0.00 0.00 0.00 0.00 0.00 0.00 0.00 0.00 0.00 0.00 0.00 0.00 0.00 0.00 0.00 0.00 0.00 0.00 0.00 0.00 0.00 0.00 0.00 0.00 0.00 0.00 0.01 0.01 0.01
0.00 0.00 0.00 0.00 0.00 0.00 0.00 0.00 0.00 0.00 0.00 0.00 0.00 0.00 0.00 0.00 0.00 0.00 0.00 0.00 0.00 0.00 0.00 0.00 0.00 0.00 0.00 0.00 0.00 0.00 0.00 0.00 0.00 0.00 0.00 0.00 0.00 0.00
0.01 0.00 0.00 0.00 0.00 0.00 0.00 0.00 0.00 0.00 0.00 0.00 0.00 0.00 0.00 0.00 0.00 0.00 0.00 0.00 0.00 0.00 0.00 0.00 0.00 0.00 0.00 0.00 0.00 0.00 0.00 0.00 0.00 0.00 0.00 0.00 0.00 0.00
0.01 0.01 0.00 0.00 0.00 0.00 0.00 0.00 0.00 0.00 0.00 0.00 0.00 0.00 0.00 0.00 0.00 0.00 0.00 0.00 0.00 0.00 0.00 0.00 0.00 0.00 0.00 0.00 0.00 0.00 0.00 0.00 0.00 0.00 0.00 0.00 0.00 0.00
0.00 0.00 0.00 0.00 0.00 0.00 0.00 0.00 0.00 0.00 0.00 0.00 0.00 0.00 0.00 0.00 0.00 0.00 0.00 0.00 0.00 0.00 0.00 0.00 0.00 0.00 0.00 0.00 0.00 0.00 0.00 0.00 0.00 0.00 0.00 0.00 0.00 0.00
0.00 0.00 0.00 0.00 0.00 0.00 0.00 0.00 0.00 0.00 0.00 0.00 0.00 0.00 0.00 0.00 0.00 0.00 0.00 0.00 0.00 0.00 0.00 0.00 0.00 0.00 0.00 0.00 0.00 0.00 0.00 0.00 0.00 0.00 0.00 0.00 0.00 0.00
0.00 0.00 0.00 0.00 0.00 0.00 0.00 0.00 0.00 0.00 0.00 0.00 0.00 0.00 0.00 0.01 0.01 0.00 0.00 0.00 0.00 0.00 0.00 0.00 0.00 0.00 0.00 0.00 0.00 0.00 0.00 0.00 0.00 0.00 0.00 0.00 0.00 0.00
0.00 0.00 0.00 0.00 0.00 0.00 0.00 0.00 0.00 0.00 0.00 0.00 0.00 0.00 0.00 0.00 0.00 0.00 0.00 0.00 0.00 0.00 0.00 0.00 0.00 0.00 0.00 0.00 0.00 0.00 0.00 0.01 0.00 0.00 0.00 0.00 0.00 0.01
0.00 0.00 0.00 0.00 0.00 0.00 0.00 0.00 0.00 0.00 0.00 0.00 0.00 0.00 0.00 0.00 0.00 0.00 0.00 0.00 0.00 0.00 0.00 0.00 0.00 0.00 0.00 0.00 0.00 0.00 0.00 0.00 0.00 0.00 0.00 0.01 0.01 0.01
0.00 0.00 0.00 0.00 0.00 0.00 0.00 0.00 0.00 0.00 0.00 0.00 0.00 0.00 0.00 0.00 0.00 0.00 0.00 0.00 0.00 0.00 0.00 0.00 0.00 0.00 0.00 0.00 0.00 0.00 0.00 0.00 0.00 0.00 0.00 0.01 0.01 0.01
0.00 0.00 0.00 0.00 0.01 0.01 0.01 0.00 0.00 0.00 0.00 0.00 0.00 0.00 0.00 0.00 0.00 0.00 0.00 0.00 0.00 0.00 0.00 0.00 0.00 0.00 0.00 0.00 0.00 0.00 0.00 0.00 0.00 0.00 0.01 0.01 0.01 0.00
0.01 0.01 0.01 0.01 0.01 0.01 0.00 0.00 0.00 0.00 0.00 0.00 0.00 0.00 0.00 0.00 0.00 0.00 0.00 0.00 0.00 0.00 0.00 0.00 0.00 0.00 0.00 0.00 0.00 0.00 0.00 0.00 0.00 0.00 0.01 0.01 0.00 0.01
0.00 0.01 0.02 0.01 0.01 0.00 0.00 0.00 0.00 0.00 0.00 0.00 0.00 0.00 0.00 0.00 0.00 0.00 0.00 0.00 0.00 0.00 0.00 0.00 0.00 0.00 0.00 0.00 0.00 0.00 0.00 0.00 0.00 0.00 0.00 0.00 0.01 0.01
0.00 0.00 0.00 0.00 0.00 0.00 0.00 0.00 0.00 0.00 0.00 0.00 0.00 0.00 0.00 0.00 0.00 0.00 0.00 0.00 0.00 0.00 0.00 0.00 0.00 0.00 0.00 0.00 0.00 0.00 0.00 0.00 0.00 0.00 0.00 0.00 0.01 0.00
0.00 0.00 0.00 0.00 0.00 0.00 0.00 0.00 0.00 0.00 0.00 0.00 0.00 0.00 0.00 0.00 0.00 0.00 0.00 0.00 0.00 0.00 0.00 0.00 0.00 0.00 0.00 0.00 0.00 0.00 0.00 0.00 0.00 0.00 0.00 0.00 0.00 0.00
0.00 0.00 0.00 0.00 0.00 0.00 0.00 0.00 0.00 0.00 0.00 0.00 0.00 0.00 0.00 0.00 0.00 0.00 0.00 0.00 0.00 0.00 0.00 0.00 0.00 0.00 0.00 0.00 0.00 0.00 0.00 0.00 0.00 0.00 0.00 0.00 0.00 0.00
0.00 0.00 0.00 0.00 0.00 0.00 0.00 0.00 0.00 0.00 0.00 0.00 0.00 0.00 0.00 0.00 0.00 0.00 0.00 0.00 0.00 0.00 0.00 0.00 0.00 0.00 0.00 0.00 0.00 0.00 0.00 0.00 0.00 0.00 0.00 0.00 0.00 0.00
0.00 0.00 0.00 0.00 0.00 0.00 0.00 0.00 0.00 0.00 0.00 0.00 0.00 0.00 0.00 0.00 0.00 0.00 0.00 0.00 0.00 0.00 0.00 0.00 0.00 0.00 0.00 0.00 0.00 0.00 0.00 0.00 0.00 0.00 0.00 0.00 0.00 0.00
0.00 0.00 0.00 0.00 0.00 0.00 0.00 0.00 0.00 0.00 0.00 0.00 0.00 0.00 0.00 0.00 0.00 0.00 0.00 0.00 0.00 0.00 0.00 0.00 0.00 0.00 0.00 0.00 0.00 0.00 0.00 0.00 0.00 0.00 0.00 0.00 0.00 0.00
MSLP
1025.04 1025.23 1025.36 1025.39 1025.33 1025.17 1024.94 1024.65 1024.35 1024.06 1023.78 1023.52 1023.27 1023.03 1022.77 1022.48 1022.15 1021.79 1021.40 1021.01 1020.62 1020.26 1019.93 1019.63 1019.37 1019.13 1018.90 1018.68 1018.47 1018.25 1018.04 1017.84 1017.66 1017.50 1017.36 1017.24 1017.12 1017.00
1025.48 1025.68 1025.81 1025.85 1025.80 1025.65 1025.42 1025.14 1024.83 1024.52 1024.22 1023.93 1023.65 1023.36 1023.04 1022.68 1022.29 1021.85 1021.38 1020.91 1020.45 1020.02 1019.63 1019.29 1018.99 1018.73 1018.48 1018.25 1018.02 1017.79 1017.56 1017.33 1017.11 1016.91 1016.74 1016.59 1016.45 1016.34
1025.73 1025.92 1026.04 1026.09 1026.05 1025.92 1025.71 1025.45 1025.16 1024.85 1024.56 1024.26 1023.96 1023.64 1023.28 1022.88 1022.42 1021.93 1021.40 1020.87 1020.36 1019.88 1019.45 1019.07 1018.75 1018.46 1018.20 1017.96 1017.71 1017.45 1017.19 1016.92 1016.66 1016.41 1016.19 1016.00 1015.84 1015.73
1025.85 1026.00 1026.11 1026.15 1026.11 1025.99 1025.81 1025.57 1025.31 1025.03 1024.75 1024.46 1024.16 1023.83 1023.46 1023.04 1022.56 1022.04 1021.49 1020.92 1020.38 1019.87 1019.41 1019.01 1018.66 1018.36 1018.08 1017.81 1017.53 1017.25 1016.95 1016.64 1016.32 1016.03 1015.76 1015.52 1015.33 1015.20
1025.93 1026.03 1026.09 1026.11 1026.05 1025.93 1025.76 1025.54 1025.30 1025.04 1024.78 1024.52 1024.24 1023.92 1023.56 1023.15 1022.68 1022.16 1021.60 1021.04 1020.48 1019.96 1019.48 1019.06 1018.69 1018.36 1018.06 1017.76 1017.46 1017.14 1016.80 1016.45 1016.10 1015.75 1015.43 1015.15 1014.93 1014.76
1026.01 1026.05 1026.06 1026.02 1025.94 1025.80 1025.61 1025.39 1025.16 1024.92 1024.67 1024.43 1024.17 1023.88 1023.55 1023.17 1022.73 1022.24 1021.70 1021.15 1020.60 1020.08 1019.60 1019.16 1018.77 1018.42 1018.08 1017.76 1017.43 1017.08 1016.71 1016.32 1015.93 1015.54 1015.18 1014.86 1014.60 1014.41
1026.14 1026.11 1026.05 1025.96 1025.82 1025.63 1025.41 1025.17 1024.92 1024.68 1024.44 1024.20 1023.97 1023.71 1023.41 1023.07 1022.68 1022.23 1021.73 1021.21 1020.68 1020.17 1019.68 1019.24 1018.83 1018.45 1018.09 1017.74 1017.38 1017.00 1016.61 1016.19 1015.77 1015.36 1014.96 1014.62 1014.33 1014.10
1026.30 1026.20 1026.08 1025.92 1025.72 1025.48 1025.21 1024.93 1024.65 1024.38 1024.13 1023.89 1023.66 1023.43 1023.16 1022.86 1022.51 1022.11 1021.66 1021.18 1020.68 1020.18 1019.70 1019.24 1018.82 1018.42 1018.04 1017.66 1017.28 1016.89 1016.47 1016.04 1015.61 1015.17 1014.76 1014.39 1014.07 1013.82
1026.47 1026.32 1026.14 1025.92 1025.66 1025.36 1025.04 1024.70 1024.38 1024.07 1023.79 1023.54 1023.31 1023.08 1022.84 1022.57 1022.26 1021.90 1021.50 1021.05 1020.58 1020.10 1019.63 1019.18 1018.74 1018.33 1017.94 1017.55 1017.16 1016.75 1016.33 1015.89 1015.44 1015.00 1014.57 1014.18 1013.83 1013.55
1026.61 1026.42 1026.20 1025.93 1025.62 1025.27 1024.90 1024.52 1024.15 1023.80 1023.48 1023.20 1022.96 1022.72 1022.49 1022.24 1021.96 1021.63 1021.27 1020.86 1020.42 1019.97 1019.51 1019.07 1018.64 1018.23 1017.84 1017.45 1017.05 1016.65 1016.22 1015.78 1015.32 1014.87 1014.42 1014.01 1013.64 1013.33
1026.69 1026.48 1026.24 1025.94 1025.60 1025.22 1024.81 1024.40 1023.99 1023.60 1023.25 1022.95 1022.67 1022.43 1022.19 1021.94 1021.67 1021.37 1021.03 1020.65 1020.24 1019.82 1019.40 1018.98 1018.57 1018.18 1017.80 1017.42 1017.04 1016.64 1016.21 1015.77 1015.30 1014.83 1014.37 1013.92 1013.52 1013.18
1026.73 1026.51 1026.26 1025.95 1025.60 1025.21 1024.78 1024.35 1023.92 1023.51 1023.14 1022.80 1022.50 1022.23 1021.97 1021.72 1021.44 1021.15 1020.82 1020.47 1020.09 1019.70 1019.32 1018.93 1018.56 1018.21 1017.86 1017.50 1017.14 1016.75 1016.34 1015.89 1015.42 1014.93 1014.44 1013.97 1013.54 1013.16
1026.75 1026.53 1026.27 1025.97 1025.63 1025.24 1024.82 1024.39 1023.96 1023.54 1023.15 1022.79 1022.47 1022.17 1021.88 1021.60 1021.31 1021.00 1020.68 1020.34 1019.99 1019.64 1019.29 1018.96 1018.63 1018.32 1018.01 1017.70 1017.36 1017.00 1016.60 1016.16 1015.68 1015.18 1014.67 1014.17 1013.71 1013.29
1026.78 1026.56 1026.31 1026.02 1025.69 1025.32 1024.93 1024.51 1024.10 1023.68 1023.29 1022.91 1022.56 1022.23 1021.91 1021.59 1021.27 1020.94 1020.61 1020.27 1019.94 1019.61 1019.30 1019.01 1018.74 1018.48 1018.22 1017.95 1017.65 1017.32 1016.94 1016.51 1016.04 1015.54 1015.03 1014.51 1014.03 1013.58
1026.84 1026.62 1026.37 1026.10 1025.80 1025.46 1025.09 1024.71 1024.31 1023.92 1023.52 1023.14 1022.76 1022.39 1022.03 1021.67 1021.31 1020.94 1020.59 1020.24 1019.90 1019.60 1019.32 1019.06 1018.84 1018.62 1018.41 1018.19 1017.94 1017.64 1017.30 1016.90 1016.45 1015.97 1015.46 1014.96 1014.46 1014.00
1026.94 1026.72 1026.48 1026.22 1025.94 1025.64 1025.30 1024.95 1024.59 1024.21 1023.83 1023.43 1023.04 1022.63 1022.22 1021.81 1021.40 1020.99 1020.59 1020.21 1019.86 1019.55 1019.29 1019.06 1018.86 1018.69 1018.52 1018.34 1018.13 1017.88 1017.58 1017.23 1016.82 1016.38 1015.91 1015.44 1014.97 1014.52
1027.06 1026.84 1026.61 1026.37 1026.11 1025.83 1025.54 1025.22 1024.89 1024.53 1024.16 1023.76 1023.35 1022.91 1022.46 1021.99 1021.51 1021.05 1020.60 1020.18 1019.80 1019.47 1019.20 1018.97 1018.79 1018.64 1018.50 1018.36 1018.19 1017.99 1017.74 1017.44 1017.09 1016.71 1016.31 1015.89 1015.47 1015.07
1027.16 1026.95 1026.73 1026.51 1026.28 1026.03 1025.77 1025.49 1025.18 1024.85 1024.49 1024.10 1023.67 1023.20 1022.70 1022.18 1021.65 1021.12 1020.62 1020.14 1019.72 1019.36 1019.06 1018.82 1018.64 1018.49 1018.36 1018.24 1018.10 1017.93 1017.73 1017.50 1017.22 1016.92 1016.60 1016.26 1015.91 1015.57
1027.22 1027.03 1026.83 1026.63 1026.43 1026.21 1025.98 1025.73 1025.46 1025.15 1024.80 1024.41 1023.97 1023.48 1022.95 1022.39 1021.80 1021.22 1020.66 1020.13 1019.66 1019.26 1018.92 1018.65 1018.44 1018.28 1018.14 1018.02 1017.90 1017.76 1017.61 1017.43 1017.22 1017.00 1016.76 1016.51 1016.25 1015.98
1027.24 1027.07 1026.90 1026.73 1026.55 1026.36 1026.16 1025.95 1025.70 1025.41 1025.08 1024.70 1024.25 1023.75 1023.19 1022.60 1021.98 1021.35 1020.74 1020.17 1019.66 1019.21 1018.83 1018.52 1018.28 1018.08 1017.92 1017.79 1017.67 1017.54 1017.41 1017.27 1017.12 1016.97 1016.80 1016.64 1016.46 1016.27
1027.22 1027.09 1026.95 1026.81 1026.66 1026.50 1026.33 1026.13 1025.91 1025.64 1025.32 1024.94 1024.50 1023.99 1023.42 1022.80 1022.16 1021.51 1020.87 1020.27 1019.72 1019.24 1018.83 1018.48 1018.20 1017.97 1017.78 1017.62 1017.47 1017.34 1017.21 1017.09 1016.97 1016.86 1016.76 1016.65 1016.54 1016.41
1027.20 1027.11 1027.00 1026.89 1026.76 1026.62 1026.47 1026.29 1026.08 1025.82 1025.51 1025.13 1024.69 1024.17 1023.60 1022.98 1022.33 1021.68 1021.03 1020.42 1019.86 1019.36 1018.93 1018.56 1018.24 1017.98 1017.75 1017.55 1017.38 1017.22 1017.07 1016.94 1016.83 1016.74 1016.65 1016.58 1016.51 1016.42
1027.21 1027.15 1027.07 1026.98 1026.88 1026.75 1026.60 1026.43 1026.21 1025.95 1025.64 1025.25 1024.80 1024.29 1023.72 1023.10 1022.46 1021.82 1021.19 1020.59 1020.04 1019.54 1019.11 1018.73 1018.40 1018.11 1017.85 1017.61 1017.40 1017.20 1017.03 1016.87 1016.73 1016.62 1016.54 1016.46 1016.40 1016.32
Thickness
5589 5587 5584 5581 5579 5577 5575 5573 5570 5566 5561 5557 5555 5554 5552 5550 5548 5545 5543 5541 5538 5536 5533 5531 5529 5527 5524 5522 5519 5516 5513 5510 5506 5503 5500 5499 5498 5497
5575 5573 5570 5567 5565 5562 5560 5558 5555 5552 5548 5544 5541 5540 5538 5537 5535 5533 5531 5529 5526 5524 5522 5520 5517 5515 5512 5509 5506 5503 5500 5496 5493 5489 5487 5485 5483 5482
5561 5559 5556 5553 5551 5548 5546 5543 5540 5537 5534 5530 5528 5527 5526 5524 5523 5521 5519 5517 5516 5514 5511 5509 5506 5504 5501 5498 5495 5492 5489 5485 5481 5478 5475 5473 5471 5469
5548 5546 5543 5541 5537 5534 5532 5529 5526 5522 5520 5518 5517 5515 5514 5513 5511 5510 5509 5507 5505 5504 5502 5499 5496 5494 5491 5488 5485 5482 5479 5476 5473 5470 5467 5464 5461 5459
5536 5534 5531 5529 5526 5523 5520 5516 5513 5511 5507 5505 5504 5502 5501 5501 5500 5500 5499 5497 5496 5495 5492 5490 5487 5485 5482 5480 5477 5474 5471 5468 5466 5462 5459 5456 5454 5451
5524 5522 5520 5517 5515 5512 5509 5505 5503 5500 5497 5495 5493 5492 5491 5490 5488 5488 5489 5488 5486 5485 5483 5481 5479 5477 5475 5473 5470 5467 5465 5462 5458 5455 5452 5450 5447 5445
5513 5511 5509 5507 5505 5502 5500 5496 5494 5491 5489 5487 5485 5483 5482 5481 5479 5477 5476 5476 5477 5475 5474 5474 5472 5471 5469 5466 5464 5461 5458 5455 5452 5450 5447 5444 5442 5440
5502 5501 5499 5497 5494 5492 5490 5488 5486 5484 5481 5479 5477 5476 5474 5472 5470 5468 5467 5467 5469 5468 5464 5466 5466 5464 5463 5460 5457 5454 5452 5449 5447 5444 5442 5439 5437 5434
5492 5490 5490 5488 5486 5484 5482 5481 5479 5477 5475 5472 5470 5469 5468 5467 5464 5463 5462 5460 5460 5460 5457 5460 5460 5459 5458 5455 5452 5449 5446 5444 5441 5438 5436 5433 5431 5428
5483 5482 5481 5480 5478 5476 5475 5475 5474 5472 5470 5468 5466 5465 5463 5461 5458 5457 5456 5454 5455 5455 5452 5453 5455 5454 5453 5451 5448 5444 5441 5439 5436 5433 5430 5428 5425 5423
5475 5474 5473 5472 5472 5470 5469 5468 5468 5468 5466 5464 5463 5462 5461 5459 5457 5454 5453 5453 5454 5454 5449 5448 5450 5448 5448 5447 5444 5440 5437 5434 5431 5428 5425 5422 5420 5417
5468 5468 5467 5466 5466 5464 5463 5462 5462 5462 5461 5461 5461 5460 5459 5458 5456 5453 5451 5450 5450 5450 5448 5445 5445 5443 5445 5444 5441 5437 5434 5431 5428 5425 5421 5418 5415 5412
5462 5462 5461 5461 5461 5460 5459 5457 5456 5456 5455 5455 5456 5457 5457 5456 5454 5452 5449 5447 5447 5447 5446 5442 5442 5440 5437 5438 5437 5434 5430 5427 5424 5421 5418 5414 5410 5407
5455 5455 5456 5456 5456 5456 5455 5454 5453 5453 5452 5453 5453 5452 5452 5452 5451 5451 5450 5448 5446 5446 5444 5440 5439 5437 5435 5434 5434 5431 5428 5424 5421 5418 5414 5411 5408 5404
5451 5451 5451 5452 5452 5452 5451 5450 5450 5449 5448 5448 5447 5447 5446 5447 5448 5449 5450 5449 5448 5447 5445 5441 5439 5436 5433 5431 5430 5427 5425 5423 5419 5416 5412 5408 5405 5402
5448 5448 5448 5448 5448 5447 5446 5446 5445 5444 5443 5442 5442 5443 5444 5446 5447 5446 5447 5446 5447 5447 5445 5442 5439 5437 5435 5432 5429 5427 5424 5420 5418 5415 5411 5408 5404 5400
5444 5445 5444 5443 5443 5442 5442 5441 5441 5440 5440 5439 5439 5441 5442 5444 5444 5444 5443 5444 5444 5444 5444 5443 5440 5438 5435 5432 5431 5429 5425 5421 5417 5414 5412 5410 5405 5400
5441 5440 5438 5437 5437 5436 5436 5436 5436 5435 5435 5435 5436 5437 5438 5440 5441 5442 5442 5443 5443 5443 5442 5442 5440 5441 5440 5436 5430 5428 5426 5423 5419 5415 5412 5410 5408 5403
5437 5435 5434 5433 5432 5431 5430 5430 5431 5430 5430 5432 5433 5434 5435 5437 5439 5440 5441 5442 5443 5443 5443 5441 5440 5440 5442 5441 5437 5429 5426 5425 5422 5419 5415 5412 5409 5406
5433 5431 5430 5429 5428 5427 5427 5427 5427 5428 5429 5429 5430 5432 5433 5435 5437 5439 5440 5441 5442 5443 5444 5444 5443 5441 5439 5438 5436 5433 5429 5426 5424 5422 5420 5416 5413 5409
5430 5428 5427 5426 5425 5424 5424 5423 5424 5425 5426 5427 5428 5430 5431 5433 5436 5438 5440 5441 5442 5444 5445 5446 5444 5441 5439 5438 5439 5438 5434 5429 5426 5423 5422 5421 5419 5417
5427 5426 5424 5423 5422 5422 5422 5422 5423 5424 5425 5426 5427 5429 5430 5433 5435 5438 5441 5443 5444 5445 5446 5447 5446 5445 5445 5444 5443 5441 5439 5435 5431 5428 5424 5422 5420 5420
5426 5424 5423 5422 5421 5421 5421 5421 5422 5423 5424 5425 5426 5428 5431 5434 5436 5439 5442 5444 5446 5448 5449 5450 5450 5449 5448 5446 5445 5444 5442 5440 5437 5435 5433 5428 5424 5421